Погода в Паттайе

Таиланд     12°55′22″N   100°52′57″E
темп.,
°C
ветер,
м/с
пор.,
м/с
влажн.,
%
обл.,
%
осадки,
мм/ч
давл.,
гПа
погр.,
м
9 декабря, чт
чт901:00+22св3774100 0.0 1014151
04:00+21св477496 0.0 1012162
07:00+21св367790 0.0 1014153
10:00+27св69609 0.0 1016762
13:00+30св5654100 0.0 10131317
16:00+29св675643 0.0 10111345
19:00+25св4107070 0.0 1013223
22:00+24св357331 0.0 1015100
10 декабря, пт
пт1001:00+23св3875100 0.0 1014184
04:00+23св4117672 0.0 1013330
07:00+21св41082100 0.0 1014296
10:00+27св686287 0.0 1016709
13:00+30св675498 0.0 10121248
16:00+29св56556 0.0 10101256
19:00+25с22680 0.0 101230
22:00+24ссв22723 0.0 101431
11 декабря, сб
сб1101:00+24св22735 0.0 101330
04:00+22св34745 0.0 101295
07:00+22св477596 0.0 1014166
10:00+27св58573 0.0 1015706
13:00+30св68487 0.0 10121250
16:00+29св6750100 0.0 10101253
19:00+25св346184 0.0 101267
22:00+23св3462100 0.0 101482
12 декабря, вс
вс1201:00+22св3465100 0.0 101373
04:00+21св4669100 0.0 1012131
07:00+20св4975100 0.0 1014208
10:00+26св61058100 0.0 1015638
13:00+29св665084 0.0 10121170
16:00+29св67501 0.0 10101332
19:00+25всв336567 0.0 101136
22:00+24св3567100 0.0 101394
13 декабря, пн
пн1301:00+23св4127285 0.0 1012424
04:00+22св5127264 0.0 1011412
07:00+20св5138187 0.0 1013419
10:00+25св8116047 0.0 1014756
13:00+28св785399 0.0 10111283
16:00+29св675399 0.0 10091339
19:00+24всв396988 0.0 1011271
22:00+23св31066100 0.0 1012303